Weather History for CWYL - November, 2012

Change the Weather History Date:

Sunday, November 11, 2012

  Actual Average Record
Temperature  
Mean Temperature 2 °F -  
Max Temperature 14 °F - - ()
Min Temperature -9 °F - - ()
Degree Days  
Heating Degree Days 62    
Moisture  
Dew Point 0 °F    
Average Humidity 84    
Maximum Humidity 90    
Minimum Humidity 73    
Precipitation  
Precipitation 0.00 in - - ()
Sea Level Pressure  
Sea Level Pressure 30.36 in    
Wind  
Wind Speed 7 mph ()    
Max Wind Speed 23 mph    
Max Gust Speed -    
T = Trace of Precipitation, MM = Missing Value Source: Averaged Metar Reports

Daily Weather History Graph

Daily Weather History Graph

Search for Another Location

Airport or City:

Trip Planner

Search our weather history database for the weather conditions in past years. The results will help you decide how hot, cold, wet, or windy it might be!

Date:

Astronomy

Nov. 11, 2012 Rise Set
Actual Time 7:57 AM MST 5:00 PM MST
Civil Twilight 7:20 AM MST 5:37 PM MST
Nautical Twilight 6:40 AM MST 6:17 PM MST
Astronomical Twilight 6:01 AM MST 6:56 PM MST
Moon 5:02 AM MST (11/11) 3:38 PM MST (11/11)
Length of Visible Light 10h 16m
Length of Day
9h 03m
Waning Crescent, 7% of the Moon is Illuminated
Nov 11
Waning Crescent
Nov 13
New
Nov 20
First Quarter
Nov 28
Full
Dec 6
Last Quarter

Hourly Weather History & Observations

Time (MST) Temp. Windchill Dew Point Humidity Pressure Visibility Wind Dir Wind Speed Gust Speed Precip Events Conditions
12:00 AM 2.1 °F -7.4 °F -0.9 °F 87% 30.25 in - NE 4.6 mph - N/A   Unknown
1:00 AM -5.4 °F - -9.0 °F 84% 30.28 in - ENE 2.3 mph - N/A   Unknown
2:00 AM -7.2 °F -18.3 °F -11.0 °F 84% 30.30 in - ENE 4.6 mph - N/A   Unknown
3:00 AM -8.0 °F - -11.9 °F 83% 30.30 in - ENE 2.3 mph - N/A   Unknown
4:00 AM -7.2 °F - -11.4 °F 82% 30.30 in - ENE 2.3 mph - N/A   Unknown
5:00 AM -8 °F - -12 °F 73% 30.33 in - ENE 3.5 mph - -  
5:00 AM -8.5 °F -17.6 °F -12.1 °F 84% 30.33 in - ENE 3.5 mph - N/A   Unknown
6:00 AM -9.2 °F -18.4 °F -13.2 °F 83% 30.35 in - ENE 3.5 mph - N/A   Unknown
7:00 AM -9.4 °F -20.9 °F -13.4 °F 83% 30.36 in - East 4.6 mph - N/A   Unknown
8:00 AM -9.2 °F - -13.2 °F 83% 30.37 in - ENE 2.3 mph - N/A   Unknown
9:00 AM -7.6 °F - -11.7 °F 82% 30.38 in - ENE 1.2 mph - N/A   Unknown
10:00 AM -4.0 °F - -7.8 °F 84% 30.38 in - East 1.2 mph - N/A   Unknown
11:00 AM 6 °F - 2 °F 78% 30.34 in - ENE 3.5 mph - -  
11:00 AM 6.4 °F -0.5 °F 2.5 °F 84% 30.34 in - ENE 3.5 mph - N/A   Unknown
12:00 PM 11.8 °F -4.8 °F 6.1 °F 78% 30.31 in - WSW 16.1 mph - N/A   Unknown
1:00 PM 12.6 °F -6.6 °F 8.2 °F 83% 30.33 in - West 23.0 mph - N/A   Unknown
2:00 PM 13.5 °F -5.0 °F 9.1 °F 83% 30.35 in - West 21.9 mph - N/A   Unknown
3:00 PM 14.4 °F -3.4 °F 9.9 °F 82% 30.36 in - West 20.7 mph - N/A   Unknown
4:00 PM 14.9 °F -2.3 °F 10.2 °F 82% 30.37 in - West 19.6 mph - N/A   Unknown
5:00 PM 13 °F - 10 °F 79% 30.39 in - West 15.0 mph - -  
5:00 PM 13.5 °F -2.1 °F 9.5 °F 84% 30.39 in - West 15.0 mph - N/A   Unknown
6:00 PM 12.6 °F -3.3 °F 9.3 °F 87% 30.42 in - West 15.0 mph - N/A   Unknown
7:00 PM 12.4 °F -3.5 °F 9.3 °F 88% 30.42 in - West 15.0 mph - N/A   Unknown
8:00 PM 12.6 °F -4.4 °F 9.5 °F 88% 30.43 in - West 17.3 mph - N/A   Unknown
9:00 PM 11.7 °F -6.5 °F 9.0 °F 89% 30.41 in - West 19.6 mph - N/A   Unknown
10:00 PM 11.1 °F -7.7 °F 8.6 °F 90% 30.41 in - West 20.7 mph - N/A   Unknown
11:00 PM 12 °F - 9 °F 83% 30.38 in - West 17.3 mph - -  
11:00 PM 11.8 °F -5.3 °F 9.1 °F 89% 30.38 in - West 17.3 mph - N/A   Unknown